Location: Buffign�court
(47.8126°N, 6.0176°E)
Time: 02:53:47
(UTC+00:00)

Ariane Rocket - Pass Details

Date: 16 June 2021
Orbit: 759 x 771 km, 98.7° (Epoch: 04 August)

Event Time Altitude Azimuth Distance (km) Brightness Sun altitude
Rises 20:11:19 0° 180° (S) 3,226 5.8 -5.2°
Reaches altitude 10° 20:13:42 10° 185° (S) 2,305 5.1 -5.5°
Maximum altitude 20:18:37 49° 260° (W) 995 3.9 -6.1°
Drops below altitude 10° 20:23:34 10° 335° (NNW) 2,325 6.9 -6.7°
Sets 20:25:58 0° 341° (NNW) 3,257 7.6 -6.9°
